Retour au catalogue

COSMOS 2491 DEB *

ActifPO
NORAD 45128·DEBRIS·🇷🇺 Russia

Lancé Dec 25, 2013 depuis Plesetsk Cosmodrome

Loading…

Prochains Passages (prochaines 24 heures)

TLE

FraisSource: Space-Track

Époque: Sep 14, 2026, 07:51 UTC

1 45128U 13076AA  26257.32743412  .00004180  00000-0  12291-2 0  9995
2 45128  81.2031 266.9837 0021409 339.4723  20.5604 14.43490929 74907

Suivez COSMOS 2491 DEB * en temps réel avec AllMySat

Download on the App Store